Location: Altmatt
(47.1333°N, 8.7000°E)
Time: 17:51:17
(UTC+00:00)

Resurs 01 Rocket - Pass Details

Date: 13 July 2020
Orbit: 635 x 644 km, 98.0° (Epoch: 12 August)

Event Time Altitude Azimuth Distance (km) Brightness Sun altitude
Exits shadow 20:38:35 - 192° (SSW) 2,826 4.6 -11.0°
Reaches altitude 10° 20:40:44 10° 203° (SSW) 2,019 3.9 -11.2°
Maximum altitude 20:44:37 30° 264° (W) 1,148 3.3 -11.7°
Drops below altitude 10° 20:48:30 10° 326° (NNW) 2,031 5.7 -12.1°
Sets 20:50:57 0° 338° (NNW) 2,945 6.7 -12.3°
